When you browse on this site, cookies collect data to enhance your experience and personalize the content and advertising you see.
Visit our Privacy Policy to learn more. By continuing to use the site, you agree to this use of cookies and data.
  • In United Kingdom
  • List of Countries
  • For 7 days
  • Water Temperature
  • Satellite Maps
  • Weather Map
  • Weather Widgets
  • user-avatar
    Login

    Hourly Weather Vasyl'kivs'ke

    Today, 25 June, Tuesday

    Time Temperature Precipitation Wind Pressure Humidity
    00:00 +21°C° 0.1 mm 2 mps 749 mmHg 70%
    01:00 +21°C° 0.1 mm 2 mps 749 mmHg 72%
    02:00 +21°C° 0 mm 2 mps 750 mmHg 64%
    03:00 +21°C° 0 mm 3 mps 750 mmHg 70%
    04:00 +21°C° 0 mm 3 mps 750 mmHg 76%
    05:00 +22°C° 0 mm 3 mps 750 mmHg 82%
    06:00 +23°C° 0 mm 4 mps 750 mmHg 76%
    07:00 +26°C° 0 mm 5 mps 750 mmHg 71%
    08:00 +28°C° 0 mm 5 mps 751 mmHg 68%
    09:00 +29°C° 0.6 mm 6 mps 751 mmHg 65%
    10:00 +29°C° 0.6 mm 6 mps 751 mmHg 61%
    11:00 +30°C° 0.6 mm 7 mps 751 mmHg 58%
    12:00 +30°C° 0.9 mm 6 mps 751 mmHg 57%
    13:00 +30°C° 0.9 mm 6 mps 751 mmHg 57%
    14:00 +30°C° 0.9 mm 6 mps 752 mmHg 57%
    15:00 +29°C° 1.2 mm 6 mps 752 mmHg 60%
    16:00 +29°C° 1.2 mm 6 mps 752 mmHg 63%
    17:00 +28°C° 1.2 mm 6 mps 752 mmHg 67%
    18:00 +26°C° 0.4 mm 6 mps 752 mmHg 71%
    19:00 +25°C° 0.4 mm 5 mps 753 mmHg 75%
    20:00 +22°C° 0.4 mm 5 mps 753 mmHg 79%
    21:00 +21°C° 0 mm 5 mps 754 mmHg 76%
    22:00 +20°C° 0 mm 6 mps 754 mmHg 72%
    23:00 +19°C° 0 mm 6 mps 754 mmHg 69%

    Tomorrow, 26 June, Wednesday

    Time Temperature Precipitation Wind Pressure Humidity
    00:00 +17°C° 0 mm 6 mps 754 mmHg 71%
    01:00 +17°C° 0 mm 5 mps 754 mmHg 73%
    02:00 +16°C° 0 mm 5 mps 755 mmHg 75%
    03:00 +16°C° 0 mm 5 mps 755 mmHg 76%
    04:00 +16°C° 0 mm 5 mps 755 mmHg 77%
    05:00 +16°C° 0 mm 5 mps 754 mmHg 79%
    06:00 +17°C° 0 mm 6 mps 755 mmHg 72%
    07:00 +20°C° 0 mm 6 mps 755 mmHg 65%
    08:00 +22°C° 0 mm 6 mps 755 mmHg 58%
    09:00 +23°C° 0 mm 6 mps 755 mmHg 54%
    10:00 +24°C° 0 mm 6 mps 755 mmHg 50%
    11:00 +26°C° 0 mm 6 mps 755 mmHg 46%
    12:00 +26°C° 0 mm 6 mps 755 mmHg 45%
    13:00 +27°C° 0 mm 5 mps 754 mmHg 45%
    14:00 +27°C° 0 mm 5 mps 754 mmHg 45%
    15:00 +27°C° 0 mm 5 mps 754 mmHg 45%
    16:00 +27°C° 0 mm 5 mps 754 mmHg 46%
    17:00 +26°C° 0 mm 4 mps 753 mmHg 47%
    18:00 +25°C° 0 mm 4 mps 753 mmHg 53%
    19:00 +22°C° 0 mm 4 mps 753 mmHg 59%
    20:00 +20°C° 0 mm 4 mps 753 mmHg 65%
    21:00 +19°C° 0 mm 3 mps 753 mmHg 67%
    22:00 +18°C° 0 mm 3 mps 753 mmHg 68%
    23:00 +18°C° 0 mm 3 mps 752 mmHg 70%

    Day after tomorrow, 27 June, Thursday

    Time Temperature Precipitation Wind Pressure Humidity
    00:00 +17°C° 0 mm 3 mps 752 mmHg 72%
    01:00 +17°C° 0 mm 3 mps 752 mmHg 74%
    02:00 +16°C° 0 mm 2 mps 752 mmHg 76%
    03:00 +16°C° 0 mm 2 mps 751 mmHg 76%
    04:00 +16°C° 0 mm 2 mps 751 mmHg 76%
    05:00 +18°C° 0 mm 1 mps 750 mmHg 76%
    06:00 +20°C° 0 mm 1 mps 750 mmHg 69%
    07:00 +22°C° 0 mm 1 mps 750 mmHg 62%
    08:00 +22°C° 0 mm 0 mps 749 mmHg 55%
    09:00 +25°C° 0 mm 1 mps 749 mmHg 50%
    10:00 +26°C° 0 mm 2 mps 748 mmHg 45%
    11:00 +27°C° 0 mm 2 mps 747 mmHg 39%
    12:00 +28°C° 0 mm 3 mps 747 mmHg 38%
    13:00 +29°C° 0 mm 3 mps 746 mmHg 36%
    14:00 +29°C° 0 mm 4 mps 746 mmHg 35%
    15:00 +29°C° 0 mm 4 mps 745 mmHg 36%
    16:00 +29°C° 0 mm 4 mps 744 mmHg 38%
    17:00 +28°C° 0 mm 4 mps 743 mmHg 39%
    18:00 +27°C° 0 mm 4 mps 743 mmHg 43%
    19:00 +25°C° 0 mm 4 mps 742 mmHg 48%
    20:00 +22°C° 0 mm 3 mps 741 mmHg 52%
    21:00 +22°C° 0 mm 4 mps 741 mmHg 53%
    22:00 +21°C° 0 mm 4 mps 741 mmHg 54%
    23:00 +21°C° 0 mm 5 mps 740 mmHg 56%

    28 June, Friday

    Time Temperature Precipitation Wind Pressure Humidity
    00:00 +21°C° 0.5 mm 5 mps 740 mmHg 67%
    01:00 +21°C° 0.5 mm 5 mps 739 mmHg 77%
    02:00 +20°C° 0.5 mm 5 mps 739 mmHg 88%
    03:00 +20°C° 0 mm 5 mps 739 mmHg 89%
    04:00 +20°C° 0 mm 5 mps 739 mmHg 90%
    05:00 +19°C° 0 mm 5 mps 738 mmHg 91%
    06:00 +20°C° 0 mm 6 mps 739 mmHg 84%
    07:00 +20°C° 0 mm 6 mps 739 mmHg 77%
    08:00 +20°C° 0 mm 7 mps 739 mmHg 70%
    09:00 +21°C° 0 mm 7 mps 739 mmHg 64%
    10:00 +22°C° 0 mm 7 mps 739 mmHg 58%
    11:00 +23°C° 0 mm 6 mps 739 mmHg 52%
    12:00 +24°C° 0 mm 7 mps 739 mmHg 50%
    13:00 +24°C° 0 mm 7 mps 739 mmHg 49%
    14:00 +24°C° 0 mm 7 mps 739 mmHg 48%
    15:00 +24°C° 0 mm 7 mps 739 mmHg 47%
    16:00 +23°C° 0 mm 7 mps 739 mmHg 47%
    17:00 +22°C° 0 mm 7 mps 739 mmHg 47%
    18:00 +21°C° 0 mm 6 mps 740 mmHg 54%
    19:00 +19°C° 0 mm 5 mps 740 mmHg 60%
    20:00 +17°C° 0 mm 4 mps 741 mmHg 67%
    21:00 +15°C° 0 mm 4 mps 741 mmHg 71%
    22:00 +15°C° 0 mm 4 mps 741 mmHg 75%
    23:00 +14°C° 0 mm 3 mps 741 mmHg 78%

    29 June, Saturday

    Time Temperature Precipitation Wind Pressure Humidity
    00:00 +14°C° 0 mm 4 mps 741 mmHg 80%
    01:00 +13°C° 0 mm 4 mps 741 mmHg 83%
    02:00 +13°C° 0 mm 4 mps 741 mmHg 85%
    03:00 +13°C° 0 mm 4 mps 741 mmHg 85%
    04:00 +13°C° 0 mm 4 mps 741 mmHg 84%
    05:00 +13°C° 0 mm 4 mps 741 mmHg 84%
    06:00 +15°C° 0 mm 5 mps 741 mmHg 78%
    07:00 +16°C° 0 mm 5 mps 742 mmHg 72%
    08:00 +17°C° 0 mm 5 mps 742 mmHg 66%
    09:00 +19°C° 0.4 mm 6 mps 742 mmHg 64%
    10:00 +19°C° 0.4 mm 6 mps 742 mmHg 61%
    11:00 +20°C° 0.4 mm 7 mps 742 mmHg 59%
    12:00 +20°C° 0.6 mm 7 mps 742 mmHg 57%
    13:00 +20°C° 0.6 mm 7 mps 742 mmHg 56%
    14:00 +20°C° 0.6 mm 7 mps 742 mmHg 54%
    15:00 +20°C° 0.3 mm 7 mps 743 mmHg 54%
    16:00 +18°C° 0.3 mm 7 mps 743 mmHg 53%
    17:00 +18°C° 0.3 mm 7 mps 743 mmHg 53%
    18:00 +16°C° 0.1 mm 6 mps 743 mmHg 60%
    19:00 +14°C° 0.1 mm 4 mps 744 mmHg 67%
    20:00 +12°C° 0.1 mm 3 mps 744 mmHg 74%
    21:00 +13°C° 0 mm 2 mps 744 mmHg 76%
    22:00 +12°C° 0 mm 2 mps 744 mmHg 77%
    23:00 +11°C° 0 mm 1 mps 745 mmHg 79%

    30 June, Sunday

    Time Temperature Precipitation Wind Pressure Humidity
    00:00 +10°C° 0 mm 2 mps 745 mmHg 80%
    01:00 +10°C° 0 mm 2 mps 745 mmHg 80%
    02:00 +10°C° 0 mm 3 mps 745 mmHg 81%
    03:00 +10°C° 0 mm 3 mps 745 mmHg 80%
    04:00 +10°C° 0 mm 3 mps 745 mmHg 78%
    05:00 +11°C° 0 mm 3 mps 745 mmHg 77%
    06:00 +12°C° 0 mm 3 mps 745 mmHg 69%
    07:00 +14°C° 0 mm 4 mps 745 mmHg 61%
    08:00 +17°C° 0 mm 4 mps 745 mmHg 53%
    09:00 +18°C° 0 mm 4 mps 745 mmHg 49%
    10:00 +19°C° 0 mm 4 mps 746 mmHg 44%
    11:00 +20°C° 0 mm 4 mps 746 mmHg 40%
    12:00 +20°C° 0 mm 4 mps 746 mmHg 40%
    13:00 +20°C° 0 mm 4 mps 746 mmHg 41%
    14:00 +20°C° 0 mm 4 mps 746 mmHg 41%
    15:00 +20°C° 0 mm 4 mps 746 mmHg 42%
    16:00 +20°C° 0 mm 4 mps 746 mmHg 42%
    17:00 +20°C° 0 mm 3 mps 746 mmHg 42%
    18:00 +19°C° 0 mm 3 mps 746 mmHg 47%
    19:00 +17°C° 0 mm 2 mps 746 mmHg 51%
    20:00 +15°C° 0 mm 1 mps 747 mmHg 56%
    21:00 +15°C° 0 mm 1 mps 747 mmHg 57%
    22:00 +14°C° 0 mm 1 mps 747 mmHg 59%
    23:00 +13°C° 0 mm 1 mps 747 mmHg 61%
    Show more